Temperature
17 19 17 16 16 17 18 18 17 13 10 10 9 8 7 6 6 6 5 5 4 3 2 1 0 -0 -1 -1 -0 -0 -1 -1 -2 -2 -3 -3 -3 -3 -3 -4 -4 -4 -4 -4
19 16 15 15 15 16 17 18 15 11 10 10 8 7 7 6 5 5 4 4 3 3 2 1 -0 -1 -2 -2 -3 -3 -3 -3 -4 -4 -5 -4 -4 -4 -4 -5 -5 -5 -5 -5
17 15 14 15 16 17 17 17 15 13 9 9 8 8 6 6 5 5 4 4 3 2 1 0 -1 -2 -3 -4 -4 -4 -4 -5 -5 -6 -6 -6 -5 -5 -5 -6 -6 -6 -6 -6
15 14 14 15 15 14 17 14 13 12 12 13 10 13 8 6 6 6 5 4 3 2 1 -0 -1 -3 -4 -5 -5 -5 -5 -6 -7 -7 -7 -7 -7 -7 -7 -7 -7 -7 -7 -6
14 14 14 15 14 13 15 12 12 12 13 12 11 12 9 6 6 6 5 4 3 2 1 -1 -2 -4 -5 -6 -6 -6 -6 -7 -7 -8 -8 -8 -8 -8 -7 -7 -8 -8 -7 -7
14 12 13 13 13 12 12 13 12 13 13 15 12 12 10 8 6 5 4 4 3 2 0 -2 -3 -4 -5 -6 -7 -7 -8 -8 -8 -8 -9 -9 -9 -9 -8 -8 -8 -8 -8 -8
15 14 13 11 14 14 15 16 18 17 17 16 11 12 8 5 5 4 4 3 2 1 -1 -2 -4 -5 -6 -7 -8 -8 -9 -9 -9 -9 -10 -10 -10 -10 -10 -9 -9 -9 -9 -9
15 13 12 11 12 12 13 14 15 16 16 15 11 10 7 5 4 4 3 3 2 0 -2 -3 -4 -6 -6 -8 -8 -9 -9 -10 -10 -10 -11 -11 -11 -11 -11 -11 -10 -10 -10 -10
14 14 11 10 10 11 11 13 11 13 13 13 13 8 6 5 5 4 3 2 1 -1 -3 -4 -5 -6 -7 -8 -9 -9 -10 -11 -11 -11 -12 -12 -12 -12 -12 -12 -11 -11 -11 -10
11 12 11 11 11 11 10 10 9 12 13 14 14 12 8 5 5 4 3 2 0 -2 -3 -4 -5 -7 -8 -8 -9 -10 -10 -11 -12 -12 -12 -12 -12 -13 -13 -12 -12 -12 -12 -11
10 11 12 11 11 11 11 12 10 11 11 12 12 12 7 6 5 4 3 2 -1 -2 -4 -5 -6 -7 -8 -9 -9 -10 -10 -11 -12 -12 -13 -13 -13 -13 -13 -13 -13 -13 -12 -12
9 11 14 12 9 8 9 10 10 11 11 10 9 8 6 5 4 4 3 1 -1 -3 -4 -5 -7 -8 -9 -10 -10 -11 -11 -11 -12 -13 -13 -13 -13 -13 -13 -13 -13 -13 -13 -12
8 11 15 14 11 9 8 8 8 8 8 10 10 10 6 5 5 4 2 -0 -2 -3 -5 -6 -7 -8 -9 -10 -11 -11 -12 -12 -12 -13 -13 -13 -13 -13 -14 -14 -14 -13 -13 -13
7 10 13 14 13 10 9 8 7 8 9 9 9 9 8 7 5 3 1 -1 -2 -4 -5 -6 -8 -9 -10 -10 -11 -11 -11 -12 -13 -13 -13 -13 -14 -14 -14 -14 -14 -14 -13 -13
7 10 9 10 8 7 7 8 7 7 8 7 8 6 6 5 4 2 1 -2 -3 -4 -6 -7 -8 -9 -10 -11 -11 -11 -11 -11 -12 -13 -13 -13 -13 -14 -14 -14 -14 -14 -14 -14
6 8 8 9 6 6 6 7 7 6 6 6 6 6 5 4 3 2 -0 -3 -4 -5 -7 -8 -9 -10 -10 -10 -10 -10 -11 -11 -12 -13 -13 -13 -13 -13 -13 -14 -14 -14 -14 -14
7 9 9 10 7 7 8 8 7 6 6 6 6 6 4 4 2 0 -2 -4 -5 -7 -8 -9 -9 -10 -10 -10 -10 -10 -11 -11 -12 -12 -13 -13 -13 -13 -14 -14 -15 -15 -15 -14
7 8 8 9 9 10 8 5 5 6 6 5 5 4 4 2 1 -2 -4 -6 -6 -8 -9 -9 -9 -9 -9 -9 -10 -10 -11 -12 -12 -12 -12 -13 -13 -14 -15 -15 -15 -15 -15 -15
5 8 7 7 9 11 6 4 4 5 5 5 5 4 3 1 -0 -1 -5 -7 -8 -8 -8 -8 -8 -8 -9 -10 -10 -10 -11 -12 -12 -12 -13 -13 -14 -15 -15 -15 -15 -15 -15 -15
4 5 8 5 7 10 8 4 3 4 5 4 3 3 1 -0 1 -1 -6 -7 -7 -7 -8 -7 -8 -8 -9 -10 -10 -11 -11 -12 -12 -12 -13 -13 -15 -15 -15 -15 -15 -15 -15 -15
6 6 7 6 7 11 6 3 3 5 6 3 2 1 -1 -1 -2 -5 -7 -7 -6 -7 -7 -7 -8 -8 -9 -10 -10 -11 -11 -11 -12 -12 -12 -14 -14 -15 -15 -15 -15 -15 -15 -15
9 9 8 7 7 8 3 2 4 5 3 2 1 -1 -2 -3 -5 -6 -6 -6 -6 -7 -7 -7 -7 -8 -9 -10 -11 -10 -11 -11 -11 -11 -12 -14 -14 -15 -15 -15 -15 -15 -15 -15
8 9 10 9 9 5 3 4 3 3 2 1 -0 -1 -2 -4 -5 -5 -6 -6 -7 -7 -7 -7 -8 -8 -9 -10 -11 -11 -11 -11 -11 -12 -13 -14 -14 -15 -14 -15 -15 -14 -14 -14
7 3 6 7 6 4 3 2 2 2 1 1 -1 -2 -3 -4 -5 -5 -6 -6 -6 -7 -7 -7 -8 -8 -9 -10 -10 -11 -11 -11 -11 -12 -13 -14 -15 -14 -14 -14 -14 -14 -14 -14
8 5 6 7 5 2 2 2 2 2 1 -0 -1 -2 -3 -4 -5 -5 -6 -6 -6 -6 -7 -7 -8 -9 -9 -10 -10 -10 -11 -11 -12 -13 -13 -14 -14 -14 -14 -14 -14 -14 -14 -14
5 7 7 10 6 6 4 1 2 1 0 -1 -2 -3 -4 -5 -5 -5 -6 -6 -6 -6 -7 -7 -8 -8 -9 -9 -10 -10 -10 -11 -12 -13 -14 -14 -14 -14 -14 -14 -14 -14 -14 -15
Wind_Speed
6 8 9 7 5 3 4 5 4 4 4 5 8 11 9 6 7 9 10 12 14 15 16 17 19 21 23 23 23 23 22 22 19 16 17 17 16 14 15 18 23 23 23 23
6 11 7 4 3 5 5 3 3 4 4 3 8 8 7 5 6 8 10 11 13 16 18 18 18 19 21 21 21 21 21 21 18 16 17 16 16 14 16 18 21 22 24 23
11 6 5 5 6 3 1 2 1 0 6 4 7 7 8 5 3 5 7 9 12 14 17 18 18 20 21 21 20 19 20 20 19 20 18 16 15 15 15 16 16 22 23 22
9 6 5 4 6 4 1 3 4 6 8 3 5 1 7 5 0 6 11 13 15 15 17 19 19 19 20 20 18 19 19 19 19 20 17 19 15 16 18 16 17 22 22 22
4 5 7 5 5 6 5 4 2 7 5 2 5 4 5 4 3 9 13 15 16 16 17 19 17 17 18 18 17 17 18 17 18 19 18 17 16 16 16 17 19 19 20 22
5 3 4 5 3 3 4 1 4 4 3 2 3 3 3 3 4 10 14 17 18 17 17 17 15 15 16 17 16 17 18 18 18 19 19 19 19 20 20 21 19 17 17 18
3 3 3 3 3 1 8 5 1 2 2 1 3 3 3 4 6 10 15 18 18 16 16 16 16 17 17 18 17 17 19 19 19 19 19 19 20 20 20 20 19 19 17 17
1 2 5 5 4 4 6 6 5 5 7 5 2 1 4 4 6 10 14 16 18 17 16 15 15 16 17 17 18 18 19 19 19 19 20 19 19 17 17 19 19 18 17 17
1 2 2 4 5 3 2 2 1 4 4 6 1 2 4 2 8 13 16 17 18 17 16 15 15 16 17 18 18 18 19 19 19 19 19 18 18 18 19 19 18 17 18 20
1 1 2 1 2 5 3 2 2 3 6 7 4 2 1 1 12 17 18 18 18 16 15 15 16 16 17 17 18 18 19 18 18 18 17 16 17 18 18 18 19 20 20 23
1 1 2 2 1 2 1 1 2 3 2 5 9 3 4 5 12 15 17 18 18 16 15 16 15 15 16 17 17 18 19 19 18 18 17 17 17 17 18 17 19 20 21 22
2 2 2 1 2 0 1 1 2 4 2 3 5 3 4 6 11 14 17 18 17 14 15 16 15 16 16 17 17 18 18 18 18 17 17 16 16 17 18 19 20 21 21 22
0 2 2 2 2 3 2 2 1 1 3 4 5 3 1 8 14 16 17 16 14 14 16 16 15 16 17 17 17 17 17 17 17 17 16 16 17 18 19 19 20 21 21 21
1 2 3 5 3 1 2 4 6 5 3 4 7 11 11 15 16 17 16 15 14 15 16 16 15 16 16 17 17 17 17 16 16 16 16 16 17 18 19 19 19 20 21 20
0 2 3 6 3 3 5 7 8 10 8 8 7 11 15 13 15 15 14 14 15 16 16 15 16 16 17 17 17 17 17 16 16 16 16 16 17 18 19 19 20 20 20 20
1 1 2 3 2 4 7 10 9 10 10 11 13 12 7 12 13 14 14 12 15 16 16 16 16 17 18 18 17 17 17 17 17 16 16 16 17 18 18 19 19 20 20 20
1 1 2 2 2 6 6 6 9 6 7 6 6 8 10 13 13 13 10 10 14 15 15 16 16 16 17 17 17 17 17 17 17 16 16 17 17 18 19 19 19 19 19 19
2 2 1 4 5 4 3 2 2 6 7 8 7 7 8 10 11 6 4 10 13 13 14 14 14 15 16 16 16 16 16 16 17 17 17 18 18 18 19 19 18 18 17 17
2 1 1 2 4 5 3 4 4 3 5 6 7 5 7 8 10 0 4 9 10 11 12 13 13 14 15 15 16 17 17 17 17 17 18 18 18 18 19 18 18 17 17 16
2 1 2 2 4 4 3 7 5 3 2 7 6 6 6 7 9 7 6 7 9 11 11 12 13 14 14 15 16 17 17 17 18 19 19 20 19 19 19 18 18 17 16 15
3 2 3 4 5 5 5 10 7 1 2 7 5 3 1 3 5 5 5 7 8 10 11 12 13 13 14 15 16 17 18 18 18 19 20 20 20 18 17 17 16 16 15 14
4 4 4 4 5 4 12 9 4 3 5 4 3 2 1 1 2 3 5 7 9 11 12 13 13 14 14 14 15 17 17 18 19 19 20 20 19 17 15 16 15 14 13 12
5 4 2 6 4 4 12 4 6 5 5 4 4 4 3 1 1 3 5 7 8 10 11 12 13 15 15 15 15 16 17 18 19 20 19 18 18 17 16 15 15 13 13 11
5 4 4 5 3 5 10 6 6 5 6 6 6 6 4 3 2 2 4 6 8 9 10 12 13 15 15 16 15 15 16 17 18 19 18 17 17 17 16 13 12 12 12 12
2 5 6 8 4 3 7 10 8 9 9 9 8 6 5 4 3 1 4 6 7 9 10 11 12 14 15 16 16 16 16 17 18 18 18 17 16 16 16 15 13 12 11 11
9 9 7 3 5 4 6 12 12 11 10 9 9 8 6 4 3 1 3 5 7 9 10 12 13 14 15 15 16 17 17 17 18 17 17 15 15 15 14 13 13 15 14 14
Wind_Direction
44 68 54 23 12 57 110 122 132 122 115 87 115 127 124 105 72 51 36 25 16 11 8 9 5 2 358 357 356 353 351 349 349 352 347 345 342 343 343 341 339 339 338 337
95 56 30 22 78 143 136 132 109 110 109 129 141 139 134 111 69 44 26 15 7 2 3 1 356 358 358 355 353 351 351 348 348 353 347 341 337 339 339 338 334 334 333 334
77 36 7 46 77 141 147 353 327 308 124 115 157 172 175 148 91 41 25 7 0 1 357 353 354 357 357 354 350 349 351 347 349 351 348 344 342 340 341 340 334 332 330 327
67 44 36 60 52 343 295 4 306 180 174 150 202 230 175 169 115 10 5 0 354 354 353 352 353 355 354 350 347 347 348 346 348 349 350 347 344 340 337 335 331 329 327 325
86 36 29 35 18 2 3 359 124 169 193 198 194 266 108 183 289 350 355 351 350 350 350 350 351 350 347 348 346 345 345 346 349 349 350 345 341 339 335 334 332 332 329 326
91 73 28 360 316 338 334 144 121 150 211 256 126 257 120 139 357 348 347 344 348 349 346 346 345 344 346 348 345 346 346 348 349 349 349 345 341 339 337 336 335 334 329 329
98 68 50 9 313 344 359 340 277 225 241 358 122 238 115 95 22 354 344 346 349 347 344 345 345 347 348 347 345 347 347 346 347 347 346 344 341 338 336 335 333 331 330 327
47 78 34 20 25 345 18 0 6 322 318 318 200 270 117 93 12 348 345 348 350 348 347 347 347 346 346 346 347 347 346 344 344 345 343 341 340 337 334 332 329 326 326 323
7 108 109 67 45 14 357 17 338 286 280 285 231 128 164 145 348 346 349 352 353 350 348 349 346 346 348 349 348 347 345 342 341 341 340 339 340 338 334 330 328 326 325 324
26 139 111 103 173 68 65 72 312 321 323 317 305 285 111 300 344 349 351 353 351 352 353 350 350 349 349 349 347 346 345 341 340 339 338 337 338 337 334 331 330 328 326 324
345 261 171 199 43 16 78 83 30 304 294 305 312 359 95 20 351 347 349 354 352 353 353 350 350 349 348 348 347 347 345 342 341 340 338 338 338 337 336 335 332 329 327 326
0 289 258 109 96 131 41 39 334 313 298 268 283 286 134 10 350 349 349 352 353 350 348 349 349 349 348 348 348 346 343 341 340 340 339 338 338 339 339 338 336 333 330 328
280 285 280 185 173 150 187 172 176 241 274 257 268 312 136 325 344 349 349 348 346 346 347 348 349 349 347 346 344 343 341 340 338 338 338 338 339 340 340 339 338 336 333 330
153 273 278 305 331 12 232 213 206 220 252 273 272 299 323 334 339 342 347 344 343 348 347 347 347 346 345 343 341 340 339 339 337 336 337 337 338 337 336 336 337 336 335 333
29 265 271 271 269 246 256 247 221 223 246 265 297 303 317 333 333 336 341 341 344 344 346 346 345 343 342 340 339 338 336 336 335 333 334 335 335 333 333 334 336 335 334 334
108 203 280 265 210 246 264 252 239 240 250 258 281 298 329 323 325 333 341 341 340 342 342 344 343 340 339 337 336 334 332 332 331 331 330 331 332 332 331 331 334 334 333 333
156 165 293 273 273 293 268 237 209 204 218 240 281 318 322 321 333 336 338 342 340 338 338 340 339 337 333 332 330 328 329 327 327 328 326 326 328 329 329 329 331 333 332 332
158 135 264 292 307 291 101 108 199 229 244 232 260 289 314 326 328 333 352 340 337 334 334 334 335 331 327 327 326 324 326 324 325 323 323 324 325 325 325 326 327 329 331 331
35 183 241 289 275 278 164 175 172 211 266 215 231 280 315 328 313 9 23 340 333 331 330 332 332 328 325 326 327 326 326 328 326 323 323 323 321 320 321 321 320 327 329 327
81 103 246 232 271 285 122 144 141 156 216 178 215 286 317 330 323 357 353 337 332 331 333 332 330 330 329 329 328 325 327 329 329 327 323 321 322 324 324 322 322 323 325 324
164 177 223 221 250 277 125 140 153 253 123 166 213 268 320 321 330 335 339 339 337 333 333 333 333 332 333 332 329 327 329 331 330 325 322 323 327 329 326 323 321 323 323 324
195 190 202 198 247 265 144 150 189 127 133 162 177 143 140 309 350 348 346 339 338 334 337 338 334 331 333 335 331 327 329 330 327 325 326 329 330 329 325 326 326 323 322 326
219 214 228 228 250 133 171 162 154 136 143 153 145 132 131 126 36 357 343 338 336 332 336 337 333 329 333 339 335 327 328 329 327 328 331 333 331 329 331 333 329 328 326 324
222 197 238 263 229 186 188 166 149 138 124 120 119 128 133 127 96 6 338 339 334 336 337 336 334 333 335 338 335 332 331 331 330 333 333 334 333 330 331 333 332 329 326 326
232 191 224 250 230 175 202 189 157 125 122 119 116 126 129 129 113 19 336 335 331 335 337 337 336 332 334 336 335 337 338 336 335 336 336 338 334 333 337 339 339 336 337 346
201 202 198 232 169 164 160 162 149 144 143 142 142 133 118 115 116 35 331 329 333 337 336 336 337 335 334 334 336 340 342 341 341 342 343 340 339 341 341 339 341 347 352 355
Height
1579 1581 1585 1589 1589 1588 1584 1584 1589 1602 1610 1612 1615 1622 1629 1632 1632 1630 1629 1627 1626 1623 1619 1615 1609 1603 1597 1589 1582 1577 1570 1565 1559 1551 1545 1539 1533 1530 1527 1523 1519 1515 1510 1506
1581 1590 1595 1594 1592 1589 1587 1586 1594 1607 1613 1614 1618 1624 1630 1632 1632 1632 1630 1628 1626 1622 1618 1614 1609 1603 1596 1590 1584 1577 1570 1565 1560 1552 1545 1540 1533 1528 1524 1520 1516 1512 1508 1504
1586 1599 1598 1596 1593 1589 1589 1589 1595 1601 1614 1616 1619 1622 1628 1631 1631 1631 1630 1628 1625 1621 1617 1613 1608 1602 1596 1589 1584 1576 1568 1563 1558 1550 1543 1537 1532 1526 1521 1517 1513 1508 1504 1501
1597 1602 1600 1597 1598 1597 1589 1598 1599 1602 1603 1601 1612 1599 1619 1628 1629 1629 1629 1627 1624 1621 1617 1612 1606 1599 1593 1587 1581 1574 1567 1561 1555 1548 1541 1535 1531 1525 1520 1516 1512 1507 1502 1497
1602 1603 1601 1599 1602 1602 1597 1601 1599 1600 1597 1601 1607 1601 1615 1626 1625 1626 1626 1623 1620 1618 1614 1608 1603 1598 1592 1586 1580 1573 1566 1560 1553 1547 1540 1535 1530 1525 1519 1514 1509 1504 1499 1494
1604 1607 1607 1607 1606 1605 1603 1601 1601 1600 1597 1589 1597 1598 1605 1618 1624 1625 1625 1621 1618 1615 1612 1607 1601 1596 1591 1585 1578 1571 1564 1557 1551 1545 1539 1533 1528 1523 1517 1511 1505 1500 1496 1491
1604 1607 1609 1610 1604 1602 1599 1594 1584 1583 1578 1582 1601 1598 1609 1625 1628 1628 1625 1621 1617 1615 1610 1605 1600 1595 1590 1584 1576 1569 1562 1555 1549 1543 1537 1531 1526 1521 1515 1509 1503 1497 1492 1487
1603 1613 1613 1614 1612 1610 1608 1605 1600 1596 1584 1585 1600 1600 1617 1627 1627 1626 1623 1620 1617 1613 1608 1603 1600 1594 1588 1581 1574 1567 1560 1553 1547 1540 1534 1529 1524 1519 1513 1508 1502 1496 1491 1485
1606 1608 1616 1617 1617 1616 1616 1612 1617 1608 1601 1598 1590 1610 1622 1625 1624 1623 1622 1619 1616 1611 1607 1603 1598 1593 1587 1579 1572 1565 1558 1551 1544 1538 1532 1526 1521 1516 1510 1504 1499 1493 1488 1482
1616 1613 1616 1617 1618 1618 1618 1621 1623 1611 1604 1590 1578 1590 1606 1618 1620 1620 1619 1616 1612 1609 1606 1601 1596 1591 1584 1576 1570 1563 1556 1549 1542 1535 1529 1523 1518 1512 1507 1502 1496 1490 1484 1478
1620 1617 1615 1616 1616 1617 1618 1618 1621 1619 1617 1606 1594 1591 1615 1619 1620 1619 1616 1613 1612 1608 1603 1598 1592 1587 1581 1573 1566 1560 1552 1546 1540 1533 1527 1521 1516 1511 1505 1500 1494 1488 1481 1475
1623 1618 1608 1615 1623 1624 1624 1623 1622 1617 1615 1616 1614 1611 1617 1618 1617 1615 1613 1613 1611 1607 1601 1595 1590 1584 1577 1570 1563 1556 1550 1543 1537 1531 1525 1520 1515 1509 1503 1497 1491 1485 1478 1472
1624 1619 1604 1606 1621 1625 1624 1625 1627 1627 1625 1615 1608 1606 1618 1615 1613 1613 1612 1612 1609 1605 1599 1594 1587 1581 1575 1567 1560 1553 1547 1541 1535 1529 1524 1519 1513 1507 1501 1495 1489 1482 1476 1469
1622 1620 1613 1607 1610 1619 1621 1623 1625 1625 1617 1612 1609 1606 1609 1612 1614 1614 1613 1612 1607 1603 1597 1591 1585 1578 1572 1565 1558 1551 1545 1539 1533 1528 1523 1517 1511 1505 1499 1493 1486 1480 1474 1467
1622 1619 1619 1615 1620 1622 1620 1619 1621 1622 1617 1617 1607 1612 1611 1614 1614 1614 1611 1609 1605 1600 1594 1588 1582 1576 1570 1563 1556 1549 1543 1537 1532 1526 1521 1515 1509 1503 1497 1491 1485 1478 1472 1465
1623 1621 1623 1615 1622 1622 1620 1616 1618 1619 1620 1618 1614 1611 1614 1614 1613 1612 1610 1607 1604 1599 1593 1587 1582 1575 1568 1561 1554 1548 1542 1536 1530 1525 1519 1513 1507 1501 1494 1489 1483 1476 1470 1463
1624 1620 1619 1611 1619 1618 1607 1607 1611 1615 1615 1615 1612 1612 1612 1610 1610 1611 1608 1606 1604 1598 1592 1586 1580 1574 1567 1560 1553 1546 1540 1534 1529 1523 1517 1511 1504 1498 1492 1487 1481 1475 1468 1461
1624 1622 1621 1615 1612 1604 1608 1612 1612 1612 1611 1613 1613 1612 1611 1611 1610 1609 1607 1605 1600 1595 1589 1582 1576 1571 1566 1559 1552 1545 1538 1532 1527 1520 1514 1509 1502 1496 1490 1485 1479 1473 1467 1460
1626 1623 1623 1623 1609 1595 1607 1610 1612 1611 1608 1610 1611 1610 1609 1609 1608 1606 1605 1602 1599 1594 1588 1583 1576 1569 1564 1558 1551 1544 1537 1531 1525 1519 1512 1506 1499 1493 1487 1482 1477 1472 1466 1460
1627 1626 1622 1626 1615 1595 1596 1607 1610 1613 1605 1608 1610 1609 1608 1609 1605 1605 1603 1599 1596 1592 1588 1582 1575 1568 1563 1557 1550 1543 1536 1529 1523 1517 1511 1504 1497 1491 1485 1479 1474 1469 1465 1460
1621 1621 1619 1618 1612 1587 1601 1605 1610 1605 1604 1607 1607 1607 1607 1607 1606 1605 1600 1596 1593 1589 1584 1579 1574 1568 1561 1555 1548 1542 1536 1529 1523 1516 1508 1501 1495 1489 1483 1477 1472 1468 1463 1459
1607 1609 1610 1613 1609 1597 1600 1603 1604 1600 1601 1604 1606 1606 1604 1602 1602 1600 1598 1594 1591 1587 1583 1578 1572 1567 1560 1554 1547 1541 1535 1529 1521 1514 1507 1500 1492 1487 1482 1476 1471 1467 1462 1458
1603 1600 1596 1596 1592 1591 1592 1593 1595 1597 1600 1602 1603 1602 1600 1600 1599 1597 1595 1592 1589 1586 1582 1577 1571 1565 1560 1553 1546 1540 1534 1526 1519 1512 1505 1498 1491 1486 1481 1476 1471 1466 1461 1457
1599 1600 1598 1592 1586 1589 1591 1592 1594 1596 1598 1600 1601 1600 1599 1598 1596 1595 1593 1590 1588 1585 1579 1574 1569 1563 1558 1552 1546 1540 1533 1525 1518 1510 1503 1497 1491 1485 1480 1475 1470 1465 1460 1455
1592 1595 1591 1587 1585 1587 1588 1591 1593 1595 1596 1598 1598 1597 1597 1595 1594 1594 1593 1590 1586 1583 1579 1573 1568 1563 1557 1551 1546 1539 1532 1524 1516 1508 1502 1496 1491 1486 1480 1474 1469 1464 1459 1455
1581 1579 1578 1572 1576 1578 1582 1587 1590 1592 1594 1596 1595 1595 1594 1594 1593 1592 1592 1589 1586 1583 1578 1574 1569 1563 1557 1551 1545 1539 1532 1525 1516 1508 1502 1496 1491 1485 1479 1473 1468 1464 1460 1455